{"data":{"norad_id":46912,"epoch":"2026-05-25T04:38:45.682656Z","epoch_age_seconds":48485,"freshness":"FRESH","line1":"1 46912U 20081H   26145.19358429  .00007630  00000+0  29728-3 0  9998","line2":"2 46912  36.8946 203.0762 0002386 152.6599 207.4276 15.25556126305662","mean_motion":15.25556126,"eccentricity":0.0002386,"inclination_deg":36.8946,"raan_deg":203.0762,"arg_perigee_deg":152.6599,"mean_anomaly_deg":207.4276,"bstar":0.00029728,"rev_number":30566,"period_min":94.391807384739,"perigee_km":487.47747512166,"apogee_km":490.75452825407,"semimajor_km":6867.2530016879,"source":"CELESTRAK","updated_at":"2026-05-25T13:37:56.368134Z"}}